CW6012 Weather Reports


time (UTC)temp
C
wind
direction
speed
KPH
gust
KPH
rain 1hr
cm
rain 24hr
cm
rain mn
cm
humidity
%
barometer
mb
20260504120315 15 101 0.0 0.0 0.00 0.00 0.00 80 1004.7
20260504120153 15 101 0.0 0.0 0.00 0.00 0.00 80 1004.7
20260504110614 16 130 0.0 0.0 0.00 0.00 0.00 77 1004.4
20260504110446 16 130 0.0 0.0 0.00 0.00 0.00 77 1004.4
20260504110322 16 130 0.0 0.0 0.00 0.00 0.00 77 1004.4
20260504110210 16 130 0.0 0.0 0.00 0.00 0.00 77 1004.4
20260504100557 15 121 0.0 1.6 0.00 0.00 0.00 78 1004.9
20260504100434 15 136 0.0 1.6 0.00 0.00 0.00 77 1004.9
20260504100305 15 135 0.0 0.0 0.00 0.00 0.00 77 1004.9
20260504100133 15 135 0.0 0.0 0.00 0.00 0.00 77 1004.9
20260504081803 16 136 0.0 0.0 0.00 0.00 0.00 74 1005.4
20260504081637 16 136 0.0 0.0 0.00 0.00 0.00 74 1005.4
20260504081514 16 136 0.0 0.0 0.00 0.00 0.00 74 1005.4
20260504081326 16 136 0.0 0.0 0.00 0.00 0.00 74 1005.5
20260504081159 16 136 0.0 0.0 0.00 0.00 0.00 74 1005.5
20260504081036 16 136 0.0 0.0 0.00 0.00 0.00 74 1005.5
20260504080909 16 136 0.0 0.0 0.00 0.00 0.00 74 1005.5
20260504080722 16 136 0.0 0.0 0.00 0.00 0.00 74 1005.5
20260504080554 16 136 0.0 0.0 0.00 0.00 0.00 74 1005.5
20260504080428 16 136 0.0 0.0 0.00 0.00 0.00 74 1005.5
20260504080300 16 136 0.0 0.0 0.00 0.00 0.00 74 1005.5
20260504080148 16 136 0.0 0.0 0.00 0.00 0.00 74 1005.5
20260504070336 17 136 0.0 0.0 0.00 0.00 0.00 72 1006.6
20260504070209 16 136 0.0 0.0 0.00 0.00 0.00 72 1006.6
20260504060215 17 136 0.0 0.0 0.00 0.00 0.00 71 1007.0
20260504060148 17 136 0.0 0.0 0.00 0.00 0.00 71 1007.0
20260504050623 18 136 0.0 0.0 0.00 0.00 0.00 66 1007.5
20260504050519 18 136 0.0 0.0 0.00 0.00 0.00 66 1007.5
20260504050451 18 136 0.0 0.0 0.00 0.00 0.00 66 1007.5
20260504050343 18 136 0.0 0.0 0.00 0.00 0.00 66 1007.5
20260504050215 18 136 0.0 0.0 0.00 0.00 0.00 66 1007.5
20260504050127 18 136 0.0 0.0 0.00 0.00 0.00 66 1007.5
20260504050010 18 136 0.0 3.2 0.00 0.00 0.00 66 1007.5
20260504045847 18 136 0.0 3.2 0.00 0.00 0.00 66 1007.5
20260504045719 18 136 0.0 3.2 0.00 0.00 0.00 66 1007.5
20260504045549 18 136 0.0 3.2 0.00 0.00 0.00 65 1007.5
20260504045424 18 136 0.0 3.2 0.00 0.00 0.00 65 1007.5
20260504045233 18 136 0.0 3.2 0.00 0.00 0.00 65 1007.5
20260504045104 18 135 0.0 1.6 0.00 0.00 0.00 65 1007.5
20260504044941 18 138 0.0 1.6 0.00 0.00 0.00 65 1007.5
20260504044813 18 137 0.0 1.6 0.00 0.00 0.00 65 1007.5
20260504044645 18 130 0.0 1.6 0.00 0.00 0.00 65 1007.5
20260504044517 18 130 0.0 1.6 0.00 0.00 0.00 65 1007.5
20260504044353 18 130 0.0 1.6 0.00 0.00 0.00 65 1007.5
20260504044225 18 130 0.0 1.6 0.00 0.00 0.00 65 1007.5
20260504044058 18 130 0.0 1.6 0.00 0.00 0.00 64 1007.5
20260504043911 18 130 0.0 1.6 0.00 0.00 0.00 64 1007.5
20260504043744 18 130 0.0 1.6 0.00 0.00 0.00 64 1007.5
20260504043617 18 130 0.0 0.0 0.00 0.00 0.00 64 1007.5
20260504043452 18 130 0.0 0.0 0.00 0.00 0.00 64 1007.5
20260504043342 18 130 0.0 0.0 0.00 0.00 0.00 64 1007.5
20260504043214 18 130 0.0 1.6 0.00 0.00 0.00 63 1007.5
20260504043025 18 130 0.0 1.6 0.00 0.00 0.00 63 1007.5
20260504042901 18 130 0.0 1.6 0.00 0.00 0.00 63 1007.5
20260504042751 18 130 0.0 1.6 0.00 0.00 0.00 63 1007.5
20260504042623 18 130 0.0 1.6 0.00 0.00 0.00 63 1007.5
20260504042459 18 130 0.0 1.6 0.00 0.00 0.00 63 1007.5
20260504042311 19 140 0.0 3.2 0.00 0.00 0.00 63 1007.5
20260504042122 19 140 0.0 3.2 0.00 0.00 0.00 62 1007.5
20260504041958 19 140 0.0 3.2 0.00 0.00 0.00 62 1007.5
20260504041808 19 140 0.0 4.8 0.00 0.00 0.00 62 1007.5
20260504041641 19 140 0.0 4.8 0.00 0.00 0.00 62 1007.5
20260504041452 19 139 0.0 4.8 0.00 0.00 0.00 62 1007.5
20260504041327 19 148 0.0 4.8 0.00 0.00 0.00 61 1007.6
20260504041159 19 148 0.0 4.8 0.00 0.00 0.00 61 1007.6
20260504041031 19 149 0.0 4.8 0.00 0.00 0.00 61 1007.6
20260504040906 19 139 0.0 4.8 0.00 0.00 0.00 61 1007.6
20260504040739 19 141 0.0 4.8 0.00 0.00 0.00 61 1007.6
20260504040549 19 150 0.0 4.8 0.00 0.00 0.00 61 1007.6
20260504040424 19 150 0.0 4.8 0.00 0.00 0.00 61 1007.6
20260504040256 19 151 1.6 4.8 0.00 0.00 0.00 61 1007.6
20260504040142 19 145 0.0 3.2 0.00 0.00 0.00 61 1007.6
20260504040001 19 138 0.0 4.8 0.00 0.00 0.00 60 1007.6
20260504035833 19 138 0.0 4.8 0.00 0.00 0.00 60 1007.5
20260504035704 19 140 0.0 4.8 0.00 0.00 0.00 60 1007.5
20260504035537 20 140 0.0 4.8 0.00 0.00 0.00 60 1007.5
20260504035412 20 140 0.0 4.8 0.00 0.00 0.00 60 1007.5
20260504035243 20 140 1.6 4.8 0.00 0.00 0.00 60 1007.5
20260504035116 20 142 1.6 4.8 0.00 0.00 0.00 59 1007.5
20260504034954 20 157 1.6 6.4 0.00 0.00 0.00 59 1007.5
20260504034805 20 154 1.6 6.4 0.00 0.00 0.00 59 1007.5
20260504034638 20 146 0.0 6.4 0.00 0.00 0.00 59 1007.5
20260504034514 20 125 0.0 6.4 0.00 0.00 0.00 59 1007.5
20260504034327 20 146 0.0 6.4 0.00 0.00 0.00 59 1007.6
20260504034200 20 146 1.6 6.4 0.00 0.00 0.00 59 1007.6
20260504034034 20 136 0.0 4.8 0.00 0.00 0.00 59 1007.6
20260504033905 20 134 1.6 4.8 0.00 0.00 0.00 59 1007.6
20260504033753 20 140 0.0 3.2 0.00 0.00 0.00 59 1007.6
20260504033627 20 138 0.0 3.2 0.00 0.00 0.00 59 1007.6
20260504033504 20 154 0.0 3.2 0.00 0.00 0.00 59 1007.6
20260504033255 20 151 0.0 4.8 0.00 0.00 0.00 58 1007.6
20260504033127 20 188 0.0 4.8 0.00 0.00 0.00 59 1007.6
20260504033005 20 140 0.0 4.8 0.00 0.00 0.00 58 1007.6
20260504032839 20 165 0.0 4.8 0.00 0.00 0.00 58 1007.5
20260504032711 20 165 0.0 4.8 0.00 0.00 0.00 58 1007.5
20260504032527 20 170 1.6 4.8 0.00 0.00 0.00 57 1007.5
20260504032400 20 143 0.0 4.8 0.00 0.00 0.00 57 1007.5
20260504032234 20 138 0.0 4.8 0.00 0.00 0.00 57 1007.5
20260504032046 20 138 0.0 4.8 0.00 0.00 0.00 57 1007.5
20260504031902 20 141 0.0 4.8 0.00 0.00 0.00 57 1007.5
20260504031735 20 113 1.6 4.8 0.00 0.00 0.00 57 1007.5
20260504031606 20 148 1.6 4.8 0.00 0.00 0.00 57 1007.5
20260504031420 20 220 0.0 4.8 0.00 0.00 0.00 57 1007.4
20260504031251 20 144 0.0 4.8 0.00 0.00 0.00 56 1007.4
20260504031103 20 153 0.0 4.8 0.00 0.00 0.00 56 1007.4
20260504030939 20 133 0.0 4.8 0.00 0.00 0.00 56 1007.4
20260504030812 20 133 0.0 4.8 0.00 0.00 0.00 55 1007.4
20260504030602 20 161 0.0 4.8 0.00 0.00 0.00 55 1007.4
20260504030437 21 157 0.0 4.8 0.00 0.00 0.00 55 1007.4
20260504030311 21 175 0.0 4.8 0.00 0.00 0.00 55 1007.4
20260504030157 21 171 0.0 4.8 0.00 0.00 0.00 55 1007.4
20260504030014 21 171 1.6 4.8 0.00 0.00 0.00 55 1007.4
20260504025848 21 147 3.2 4.8 0.00 0.00 0.00 55 1007.0
20260504025700 21 143 0.0 3.2 0.00 0.00 0.00 55 1007.0
20260504025512 21 145 0.0 4.8 0.00 0.00 0.00 55 1007.0
20260504025349 21 144 0.0 6.4 0.00 0.00 0.00 54 1007.0
20260504025202 21 157 0.0 6.4 0.00 0.00 0.00 54 1007.0
20260504025034 21 162 1.6 6.4 0.00 0.00 0.00 54 1007.0
20260504024852 21 172 1.6 6.4 0.00 0.00 0.00 53 1007.0
20260504024722 21 153 0.0 6.4 0.00 0.00 0.00 53 1007.0
20260504024555 21 190 1.6 6.4 0.00 0.00 0.00 53 1007.0
20260504024433 21 147 0.0 9.7 0.00 0.00 0.00 53 1007.0
20260504024243 21 129 1.6 9.7 0.00 0.00 0.00 53 1007.0
20260504024116 21 117 1.6 9.7 0.00 0.00 0.00 53 1007.0
20260504023948 21 113 0.0 9.7 0.00 0.00 0.00 53 1007.0
20260504023743 21 164 1.6 9.7 0.00 0.00 0.00 53 1007.0
20260504023615 21 121 1.6 9.7 0.00 0.00 0.00 53 1007.0
20260504023428 21 165 1.6 6.4 0.00 0.00 0.00 53 1007.0
20260504023242 21 130 1.6 8.0 0.00 0.00 0.00 53 1007.0
20260504023116 21 156 1.6 8.0 0.00 0.00 0.00 53 1007.0
20260504022948 21 96 0.0 8.0 0.00 0.00 0.00 53 1007.0
20260504022825 21 124 0.0 9.7 0.00 0.00 0.00 53 1007.1
20260504022637 21 134 1.6 9.7 0.00 0.00 0.00 53 1007.1
20260504022509 21 153 1.6 9.7 0.00 0.00 0.00 53 1007.1
20260504022359 21 93 1.6 9.7 0.00 0.00 0.00 53 1007.1
20260504022233 21 128 1.6 9.7 0.00 0.00 0.00 53 1007.1
20260504022105 21 128 1.6 9.7 0.00 0.00 0.00 52 1007.1
20260504021939 21 132 1.6 6.4 0.00 0.00 0.00 53 1007.1
20260504021817 21 119 1.6 6.4 0.00 0.00 0.00 53 1007.1
20260504021650 21 144 1.6 6.4 0.00 0.00 0.00 53 1007.1
20260504021522 21 166 3.2 8.0 0.00 0.00 0.00 52 1007.1
20260504021400 21 153 1.6 8.0 0.00 0.00 0.00 52 1006.9
20260504021232 21 167 3.2 8.0 0.00 0.00 0.00 52 1006.9
20260504021105 21 137 0.0 8.0 0.00 0.00 0.00 52 1006.9
20260504021028 21 137 0.0 8.0 0.00 0.00 0.00 52 1006.9
20260504020905 21 95 1.6 8.0 0.00 0.00 0.00 52 1006.9
20260504020739 21 142 1.6 8.0 0.00 0.00 0.00 51 1006.9
20260504020610 21 146 3.2 8.0 0.00 0.00 0.00 52 1006.9
20260504020500 21 125 1.6 6.4 0.00 0.00 0.00 51 1006.9
20260504020316 21 155 1.6 8.0 0.00 0.00 0.00 52 1006.9
20260504020149 21 143 1.6 8.0 0.00 0.00 0.00 51 1006.9
20260504020034 22 142 1.6 8.0 0.00 0.00 0.00 51 1006.9
20260504015855 22 151 1.6 8.0 0.00 0.00 0.00 51 1006.7
20260504015705 22 131 3.2 9.7 0.00 0.00 0.00 51 1006.7
20260504015538 22 155 3.2 11.3 0.00 0.00 0.00 51 1006.7
20260504015415 22 157 3.2 11.3 0.00 0.00 0.00 51 1006.7
20260504015249 22 129 3.2 11.3 0.00 0.00 0.00 51 1006.7
20260504015122 22 169 1.6 11.3 0.00 0.00 0.00 51 1006.7
20260504014955 22 140 1.6 11.3 0.00 0.00 0.00 51 1006.7
20260504014832 22 157 3.2 11.3 0.00 0.00 0.00 50 1006.7
20260504014706 22 146 1.6 6.4 0.00 0.00 0.00 51 1006.7
20260504014539 22 158 1.6 6.4 0.00 0.00 0.00 50 1006.7
20260504014417 22 145 1.6 9.7 0.00 0.00 0.00 50 1006.5
20260504014249 22 128 1.6 9.7 0.00 0.00 0.00 50 1006.5
20260504014123 22 148 1.6 9.7 0.00 0.00 0.00 50 1006.5
20260504013959 22 174 1.6 9.7 0.00 0.00 0.00 50 1006.5
20260504013833 22 172 1.6 9.7 0.00 0.00 0.00 50 1006.5
20260504013643 22 156 1.6 9.7 0.00 0.00 0.00 50 1006.5
20260504013501 22 161 1.6 9.7 0.00 0.00 0.00 50 1006.5
20260504013334 22 160 1.6 9.7 0.00 0.00 0.00 50 1006.5
20260504013147 22 164 1.6 9.7 0.00 0.00 0.00 49 1006.5
20260504012958 22 144 1.6 9.7 0.00 0.00 0.00 49 1006.5
20260504012836 22 138 3.2 9.7 0.00 0.00 0.00 49 1006.5
20260504012708 22 158 3.2 9.7 0.00 0.00 0.00 49 1006.5
20260504012519 22 162 1.6 6.4 0.00 0.00 0.00 49 1006.5
20260504012357 22 160 1.6 6.4 0.00 0.00 0.00 49 1006.5
20260504012229 22 174 1.6 8.0 0.00 0.00 0.00 49 1006.5
20260504012101 22 142 1.6 8.0 0.00 0.00 0.00 48 1006.5
20260504011938 22 145 0.0 8.0 0.00 0.00 0.00 48 1006.5
20260504011812 22 169 1.6 8.0 0.00 0.00 0.00 48 1006.5
20260504011645 23 186 3.2 8.0 0.00 0.00 0.00 48 1006.5
20260504011522 23 178 3.2 8.0 0.00 0.00 0.00 47 1006.5
20260504011411 23 155 1.6 8.0 0.00 0.00 0.00 48 1006.5
20260504011243 23 145 0.0 8.0 0.00 0.00 0.00 48 1006.5
20260504011052 23 149 1.6 8.0 0.00 0.00 0.00 48 1006.5
20260504005938 23 126 3.2 9.7 0.00 0.00 0.00 46 1006.5
20260504005728 23 149 0.0 9.7 0.00 0.00 0.00 46 1006.5
20260504005645 23 148 0.0 9.7 0.00 0.00 0.00 46 1006.5
20260504005518 23 153 1.6 9.7 0.00 0.00 0.00 45 1006.5
20260504005329 23 150 3.2 9.7 0.00 0.00 0.00 45 1006.5
20260504005203 23 146 1.6 8.0 0.00 0.00 0.00 46 1006.5
20260504005040 23 117 0.0 6.4 0.00 0.00 0.00 46 1006.5
20260504004929 23 117 1.6 6.4 0.00 0.00 0.00 45 1006.5
20260504004738 23 148 1.6 6.4 0.00 0.00 0.00 46 1006.5
20260504004616 23 146 0.0 6.4 0.00 0.00 0.00 46 1006.5
20260504004449 23 175 1.6 6.4 0.00 0.00 0.00 46 1006.5
20260504004322 23 136 1.6 6.4 0.00 0.00 0.00 46 1006.5
20260504004137 23 146 1.6 6.4 0.00 0.00 0.00 46 1006.5
20260504003929 23 167 0.0 4.8 0.00 0.00 0.00 45 1006.5
20260504003802 23 146 1.6 6.4 0.00 0.00 0.00 45 1006.5
20260504003635 23 167 1.6 6.4 0.00 0.00 0.00 45 1006.5
20260504003511 24 155 0.0 8.0 0.00 0.00 0.00 45 1006.5
20260504003323 24 153 0.0 8.0 0.00 0.00 0.00 44 1006.5
20260504003134 24 164 1.6 8.0 0.00 0.00 0.00 43 1006.5
20260504002949 24 163 1.6 8.0 0.00 0.00 0.00 43 1006.5
20260504002822 24 150 1.6 8.0 0.00 0.00 0.00 43 1006.5
20260504002654 24 165 1.6 8.0 0.00 0.00 0.00 43 1006.5
20260504002530 24 140 1.6 4.8 0.00 0.00 0.00 42 1006.5
20260504002419 24 140 1.6 6.4 0.00 0.00 0.00 42 1006.5
20260504002229 24 152 0.0 6.4 0.00 0.00 0.00 42 1006.5
20260504002101 24 152 0.0 6.4 0.00 0.00 0.00 41 1006.5
20260504001917 24 152 0.0 6.4 0.00 0.00 0.00 41 1006.5
20260504001750 24 151 0.0 6.4 0.00 0.00 0.00 41 1006.5
20260504001623 25 166 1.6 6.4 0.00 0.00 0.00 40 1006.5
20260504001458 25 154 1.6 6.4 0.00 0.00 0.00 40 1006.5
20260504001331 25 172 1.6 6.4 0.00 0.00 0.00 40 1006.5
20260504001142 25 192 3.2 6.4 0.00 0.00 0.00 40 1006.5
20260504001018 25 177 1.6 6.4 0.00 0.00 0.00 40 1006.5
20260504000849 25 177 1.6 8.0 0.00 0.00 0.00 40 1006.5
20260504000720 25 157 0.0 8.0 0.00 0.00 0.00 39 1006.5
20260504000556 25 172 0.0 8.0 0.00 0.00 0.00 39 1006.5
20260504000446 25 114 0.0 8.0 0.00 0.00 0.00 38 1006.5
20260504000319 25 126 1.6 8.0 0.00 0.00 0.00 37 1006.5
20260504000143 25 159 1.6 8.0 0.00 0.00 0.00 36 1006.5
20260504000004 25 135 0.0 8.0 0.00 0.00 0.00 36 1006.5
20260503235836 25 140 0.0 8.0 0.00 0.00 0.00 36 1006.6
20260503235707 25 154 1.6 8.0 0.00 0.00 0.00 35 1006.6
20260503235542 25 159 1.6 8.0 0.00 0.00 0.00 34 1006.6
20260503235413 25 143 1.6 6.4 0.00 0.00 0.00 35 1006.6
20260503235246 25 151 1.6 6.4 0.00 0.00 0.00 34 1006.6
20260503235121 25 148 1.6 6.4 0.00 0.00 0.00 35 1006.6
20260503234954 25 168 0.0 6.4 0.00 0.00 0.00 35 1006.6
20260503234825 25 175 0.0 6.4 0.00 0.00 0.00 35 1006.6
20260503234658 25 142 0.0 6.4 0.00 0.00 0.00 35 1006.6
20260503234535 25 142 1.6 8.0 0.00 0.00 0.00 35 1006.6
20260503234407 25 170 1.6 8.0 0.00 0.00 0.00 35 1006.6
20260503234239 25 253 0.0 8.0 0.00 0.00 0.00 35 1006.6
20260503234054 25 167 0.0 8.0 0.00 0.00 0.00 35 1006.6
20260503233925 25 218 0.0 8.0 0.00 0.00 0.00 35 1006.6
20260503233754 25 138 1.6 8.0 0.00 0.00 0.00 35 1006.6
20260503233629 25 161 1.6 6.4 0.00 0.00 0.00 35 1006.6
20260503233502 26 132 0.0 4.8 0.00 0.00 0.00 35 1006.6
20260503233333 26 158 0.0 4.8 0.00 0.00 0.00 34 1006.6
20260503233144 26 142 0.0 4.8 0.00 0.00 0.00 34 1006.6
20260503233019 26 109 1.6 4.8 0.00 0.00 0.00 35 1006.6
20260503232852 26 131 1.6 4.8 0.00 0.00 0.00 34 1006.7
20260503232722 26 128 0.0 4.8 0.00 0.00 0.00 34 1006.7
20260503232558 26 142 0.0 4.8 0.00 0.00 0.00 35 1006.7
20260503232430 26 141 0.0 4.8 0.00 0.00 0.00 35 1006.7
20260503232305 26 141 0.0 4.8 0.00 0.00 0.00 36 1006.7
20260503232138 26 153 0.0 4.8 0.00 0.00 0.00 35 1006.7
20260503231948 26 136 0.0 4.8 0.00 0.00 0.00 35 1006.7
20260503231838 26 189 0.0 8.0 0.00 0.00 0.00 36 1006.7
20260503231710 26 94 0.0 8.0 0.00 0.00 0.00 35 1006.7
20260503231546 26 165 0.0 8.0 0.00 0.00 0.00 34 1006.7
20260503231436 26 256 0.0 8.0 0.00 0.00 0.00 34 1006.7
20260503231247 26 146 1.6 8.0 0.00 0.00 0.00 34 1006.7
20260503231123 26 150 1.6 8.0 0.00 0.00 0.00 33 1006.7
20260503230956 26 134 0.0 8.0 0.00 0.00 0.00 36 1006.7
20260503230844 26 153 0.0 4.8 0.00 0.00 0.00 35 1006.7
20260503230717 26 169 0.0 4.8 0.00 0.00 0.00 35 1006.7
20260503230553 26 170 0.0 4.8 0.00 0.00 0.00 34 1006.7
20260503230405 26 139 0.0 4.8 0.00 0.00 0.00 35 1006.7
20260503230215 26 153 0.0 4.8 0.00 0.00 0.00 34 1006.7
20260503230106 26 121 0.0 4.8 0.00 0.00 0.00 34 1006.7
20260503225923 26 207 0.0 8.0 0.00 0.00 0.00 35 1007.0
20260503225754 26 216 0.0 8.0 0.00 0.00 0.00 35 1007.0
20260503225631 26 194 0.0 8.0 0.00 0.00 0.00 35 1007.0
20260503225501 26 178 0.0 8.0 0.00 0.00 0.00 35 1007.0
20260503225333 26 164 1.6 8.0 0.00 0.00 0.00 34 1007.0
20260503225209 26 142 3.2 8.0 0.00 0.00 0.00 33 1007.0
20260503225040 26 113 0.0 6.4 0.00 0.00 0.00 36 1007.0
20260503224931 26 146 0.0 6.4 0.00 0.00 0.00 36 1007.0
20260503224821 26 159 0.0 6.4 0.00 0.00 0.00 36 1007.0
20260503224657 26 159 0.0 6.4 0.00 0.00 0.00 36 1007.0
20260503224526 26 158 1.6 6.4 0.00 0.00 0.00 35 1007.0
20260503224359 26 164 1.6 8.0 0.00 0.00 0.00 34 1007.0
20260503224210 26 133 1.6 8.0 0.00 0.00 0.00 34 1007.0
20260503224046 26 182 0.0 8.0 0.00 0.00 0.00 34 1007.0
20260503223858 26 142 0.0 8.0 0.00 0.00 0.00 34 1007.0
20260503223731 26 171 0.0 8.0 0.00 0.00 0.00 35 1007.0
20260503223606 26 163 1.6 8.0 0.00 0.00 0.00 34 1007.0
20260503223437 26 171 1.6 6.4 0.00 0.00 0.00 35 1007.0
20260503223308 26 205 1.6 4.8 0.00 0.00 0.00 35 1007.0
20260503223122 26 135 0.0 1.6 0.00 0.00 0.00 35 1007.0
20260503222954 26 135 0.0 1.6 0.00 0.00 0.00 34 1007.0
20260503222825 26 181 0.0 0.0 0.00 0.00 0.00 35 1007.3
20260503222701 26 213 0.0 0.0 0.00 0.00 0.00 36 1007.3
20260503222532 26 215 0.0 1.6 0.00 0.00 0.00 34 1007.3
20260503222420 26 161 0.0 1.6 0.00 0.00 0.00 35 1007.3
20260503222251 26 167 0.0 1.6 0.00 0.00 0.00 34 1007.3
20260503222128 26 163 0.0 4.8 0.00 0.00 0.00 34 1007.3
20260503221939 26 160 0.0 4.8 0.00 0.00 0.00 34 1007.3
20260503221812 26 160 0.0 4.8 0.00 0.00 0.00 35 1007.3
20260503221648 26 206 0.0 4.8 0.00 0.00 0.00 35 1007.3
20260503221520 26 155 0.0 4.8 0.00 0.00 0.00 35 1007.3
20260503221354 26 161 0.0 4.8 0.00 0.00 0.00 35 1007.4
20260503221208 27 171 0.0 4.8 0.00 0.00 0.00 35 1007.4